FW7582 Weather Reports


time (UTC)temp
C
wind
direction
speed
KPH
gust
KPH
rain 1hr
cm
rain 24hr
cm
rain mn
cm
humidity
%
barometer
mb
20260503200524 27 264 1.6 1.6 0.00 0.00 0.00 50 1015.5
20260503200021 26 350 0.0 1.6 0.00 0.00 0.00 46 1015.7
20260503195518 27 323 0.0 1.6 0.00 0.00 0.00 45 1015.9
20260503195015 26 22 0.0 3.2 0.00 0.00 0.00 46 1015.8
20260503194512 26 296 0.0 1.6 0.00 0.00 0.00 46 1016.0
20260503194012 26 320 0.0 1.6 0.00 0.00 0.00 50 1015.9
20260503193508 26 327 0.0 1.6 0.00 0.00 0.00 53 1015.9
20260503193004 25 338 1.6 1.6 0.00 0.00 0.00 49 1016.1
20260503192500 25 6 0.0 1.6 0.00 0.00 0.00 51 1016.2
20260503191955 25 20 0.0 0.0 0.00 0.00 0.00 51 1016.3
20260503191453 25 40 0.0 3.2 0.00 0.00 0.00 49 1016.3
20260503190949 25 15 0.0 3.2 0.00 0.00 0.00 52 1016.5
20260503190447 23 11 0.0 1.6 0.00 0.00 0.00 54 1016.4
20260503185944 24 97 0.0 1.6 0.00 0.00 0.00 50 1016.4
20260503185440 23 35 0.0 1.6 0.00 0.00 0.00 49 1016.5
20260503184939 23 30 1.6 4.8 0.00 0.00 0.00 51 1016.7
20260503184436 23 295 1.6 1.6 0.00 0.00 0.00 51 1016.5
20260503183932 23 319 0.0 1.6 0.00 0.00 0.00 55 1016.8
20260503183429 23 134 0.0 1.6 0.00 0.00 0.00 52 1016.8
20260503182926 22 319 0.0 1.6 0.00 0.00 0.00 57 1016.7
20260503182425 22 29 0.0 3.2 0.00 0.00 0.00 54 1017.0
20260503181922 22 4 0.0 3.2 0.00 0.00 0.00 61 1016.9
20260503181419 22 15 0.0 0.0 0.00 0.00 0.00 58 1017.2
20260503180915 22 332 0.0 0.0 0.00 0.00 0.00 60 1017.0
20260503180414 21 19 0.0 0.0 0.00 0.00 0.00 60 1017.0
20260503175910 21 14 0.0 1.6 0.00 0.00 0.00 62 1017.1
20260503175408 21 52 0.0 1.6 0.00 0.00 0.00 63 1017.0
20260503174903 21 52 0.0 1.6 0.00 0.00 0.00 64 1017.2
20260503174402 21 51 0.0 1.6 0.00 0.00 0.00 67 1017.2
20260503173856 21 348 0.0 0.0 0.00 0.00 0.00 64 1017.2
20260503173353 20 25 0.0 0.0 0.00 0.00 0.00 69 1017.4
20260503172849 20 18 0.0 0.0 0.00 0.00 0.00 69 1017.2
20260503172347 20 20 0.0 0.0 0.00 0.00 0.00 70 1017.3
20260503171843 20 95 0.0 1.6 0.00 0.00 0.00 72 1017.3
20260503171340 19 350 0.0 1.6 0.00 0.00 0.00 72 1017.4
20260503170838 19 332 0.0 1.6 0.00 0.00 0.00 75 1017.4
20260503170334 19 357 0.0 0.0 0.00 0.00 0.00 74 1017.4
20260503150726 12 26 0.0 0.0 0.00 0.00 0.00 92 1017.6
20260503150222 12 18 0.0 0.0 0.00 0.00 0.00 94 1017.5
20260503140147 10 341 0.0 0.0 0.00 0.00 0.00 99 1017.5
20260503131116 8 346 0.0 0.0 0.00 0.00 0.00 99 1017.6
20260503130614 8 346 0.0 0.0 0.00 0.00 0.00 99 1017.4
20260503130112 8 347 0.0 0.0 0.00 0.00 0.00 99 1017.5
20260503110504 9 346 0.0 0.0 0.00 0.00 0.00 98 1017.7
20260503090355 10 343 0.0 0.0 0.00 0.00 0.00 95 1017.9
20260503081323 11 342 0.0 0.0 0.00 0.00 0.00 93 1017.8
20260503080819 11 341 0.0 0.0 0.00 0.00 0.00 92 1017.8
20260503080317 11 341 0.0 0.0 0.00 0.00 0.00 92 1017.9
20260503072753 11 340 0.0 0.0 0.00 0.00 0.00 91 1017.9
20260503072250 11 340 0.0 0.0 0.00 0.00 0.00 91 1017.8
20260503071746 11 340 0.0 0.0 0.00 0.00 0.00 90 1017.8
20260503071243 11 340 0.0 0.0 0.00 0.00 0.00 90 1018.0
20260503070739 11 340 0.0 0.0 0.00 0.00 0.00 90 1017.7
20260503070238 12 340 0.0 0.0 0.00 0.00 0.00 90 1017.8
20260503060202 13 337 0.0 0.0 0.00 0.00 0.00 86 1017.8
20260503054649 13 337 0.0 0.0 0.00 0.00 0.00 87 1017.6
20260503054147 13 337 0.0 0.0 0.00 0.00 0.00 85 1018.0
20260503053644 13 337 0.0 0.0 0.00 0.00 0.00 85 1017.9
20260503053143 13 336 0.0 0.0 0.00 0.00 0.00 84 1017.8
20260503052639 13 336 0.0 0.0 0.00 0.00 0.00 84 1017.8
20260503052135 13 336 0.0 0.0 0.00 0.00 0.00 84 1017.9
20260503051631 14 336 0.0 0.0 0.00 0.00 0.00 84 1017.6
20260503051129 14 336 0.0 0.0 0.00 0.00 0.00 83 1017.7
20260503050625 14 336 0.0 0.0 0.00 0.00 0.00 83 1017.7
20260503050122 14 336 0.0 0.0 0.00 0.00 0.00 83 1017.7
20260503045620 15 336 0.0 0.0 0.00 0.00 0.00 82 1018.0
20260503045116 15 336 0.0 0.0 0.00 0.00 0.00 81 1017.8
20260503044613 15 335 0.0 0.0 0.00 0.00 0.00 81 1017.5
20260503044111 15 335 0.0 0.0 0.00 0.00 0.00 81 1017.7
20260503043607 15 335 0.0 0.0 0.00 0.00 0.00 81 1017.5
20260503043104 15 335 0.0 0.0 0.00 0.00 0.00 80 1017.4
20260503042600 15 335 0.0 0.0 0.00 0.00 0.00 80 1017.5
20260503042056 16 335 0.0 0.0 0.00 0.00 0.00 79 1017.5
20260503041553 16 335 0.0 0.0 0.00 0.00 0.00 78 1017.3
20260503041051 16 335 0.0 0.0 0.00 0.00 0.00 77 1017.2
20260503040548 16 334 0.0 0.0 0.00 0.00 0.00 77 1017.2
20260503040045 16 333 0.0 0.0 0.00 0.00 0.00 77 1017.1
20260503035542 16 336 0.0 0.0 0.00 0.00 0.00 76 1017.3
20260503035040 17 335 0.0 0.0 0.00 0.00 0.00 74 1016.9
20260503034537 17 349 0.0 0.0 0.00 0.00 0.00 73 1017.1
20260503034034 17 348 0.0 0.0 0.00 0.00 0.00 72 1017.1
20260503033531 17 13 0.0 0.0 0.00 0.00 0.00 70 1016.7
20260503033029 18 13 0.0 0.0 0.00 0.00 0.00 72 1016.8
20260503032527 18 4 0.0 0.0 0.00 0.00 0.00 68 1016.7
20260503032025 19 5 0.0 0.0 0.00 0.00 0.00 67 1016.7
20260503031522 19 10 0.0 0.0 0.00 0.00 0.00 63 1016.6
20260503031019 20 23 0.0 1.6 0.00 0.00 0.00 60 1016.6
20260503030515 20 23 0.0 0.0 0.00 0.00 0.00 59 1016.5
20260503030013 20 339 0.0 0.0 0.00 0.00 0.00 58 1016.3
20260503025509 20 3 0.0 0.0 0.00 0.00 0.00 59 1016.3
20260503025007 20 352 0.0 0.0 0.00 0.00 0.00 62 1016.5
20260503024503 20 1 0.0 0.0 0.00 0.00 0.00 61 1016.3
20260503024000 21 349 0.0 0.0 0.00 0.00 0.00 60 1016.5
20260503023457 21 9 0.0 1.6 0.00 0.00 0.00 60 1016.1
20260503022954 21 1 0.0 0.0 0.00 0.00 0.00 60 1016.3
20260503022449 21 15 0.0 1.6 0.00 0.00 0.00 59 1016.1
20260503021945 21 31 0.0 1.6 0.00 0.00 0.00 60 1016.2
20260503021442 21 339 0.0 0.0 0.00 0.00 0.00 60 1016.1
20260503020939 22 351 0.0 1.6 0.00 0.00 0.00 59 1016.0
20260503020437 22 1 0.0 0.0 0.00 0.00 0.00 65 1016.0
20260503015933 22 340 0.0 0.0 0.00 0.00 0.00 60 1016.0
20260503015430 22 328 0.0 0.0 0.00 0.00 0.00 59 1016.2
20260503014926 22 340 0.0 0.0 0.00 0.00 0.00 58 1016.0
20260503014423 23 344 0.0 1.6 0.00 0.00 0.00 58 1016.3
20260503013921 23 339 0.0 0.0 0.00 0.00 0.00 59 1016.2
20260503013418 23 8 0.0 0.0 0.00 0.00 0.00 58 1016.1
20260503012915 23 346 0.0 0.0 0.00 0.00 0.00 57 1016.0
20260503012413 23 340 0.0 0.0 0.00 0.00 0.00 55 1016.2
20260503011909 23 0 0.0 0.0 0.00 0.00 0.00 56 1016.2
20260503011406 23 24 0.0 0.0 0.00 0.00 0.00 57 1016.3
20260503010903 23 323 0.0 0.0 0.00 0.00 0.00 56 1016.2
20260503010400 24 328 0.0 1.6 0.00 0.00 0.00 56 1016.2
20260503005857 24 32 0.0 0.0 0.00 0.00 0.00 56 1016.1
20260503005354 24 345 0.0 1.6 0.00 0.00 0.00 55 1016.1
20260503004850 24 11 0.0 1.6 0.00 0.00 0.00 55 1016.1
20260503004348 24 33 0.0 0.0 0.00 0.00 0.00 60 1016.2
20260503003845 24 42 1.6 3.2 0.00 0.00 0.00 55 1016.2
20260503003342 25 56 0.0 0.0 0.00 0.00 0.00 56 1016.3
20260503002839 25 29 1.6 3.2 0.00 0.00 0.00 56 1016.3
20260503002336 25 27 0.0 3.2 0.00 0.00 0.00 56 1016.3
20260503001832 25 17 0.0 0.0 0.00 0.00 0.00 57 1016.2
20260503001328 25 351 0.0 1.6 0.00 0.00 0.00 58 1016.2
20260503000826 25 330 0.0 1.6 0.00 0.00 0.00 55 1016.3
20260503000325 25 1 0.0 0.0 0.00 0.00 0.00 54 1016.4
20260502235820 25 324 0.0 1.6 0.00 0.00 0.00 56 1016.4
20260502235318 25 90 0.0 1.6 0.00 0.00 0.00 56 1016.4
20260502234814 25 359 0.0 1.6 0.00 0.00 0.00 56 1016.3
20260502234312 26 21 0.0 3.2 0.00 0.00 0.00 54 1016.4
20260502233808 26 13 0.0 1.6 0.00 0.00 0.00 55 1016.5
20260502233304 26 334 0.0 1.6 0.00 0.00 0.00 55 1016.7
20260502232800 26 356 0.0 0.0 0.00 0.00 0.00 57 1016.7
20260502232257 26 302 1.6 1.6 0.00 0.00 0.00 51 1016.9
20260502231754 26 315 0.0 3.2 0.00 0.00 0.00 54 1017.0
20260502231252 26 293 0.0 0.0 0.00 0.00 0.00 56 1016.7
20260502230750 26 32 0.0 0.0 0.00 0.00 0.00 55 1016.9
20260502230248 26 334 0.0 4.8 0.00 0.00 0.00 55 1017.1
20260502225744 27 353 0.0 1.6 0.00 0.00 0.00 53 1017.2
20260502225241 27 47 0.0 3.2 0.00 0.00 0.00 57 1017.2
20260502224737 26 319 0.0 0.0 0.00 0.00 0.00 54 1017.4
20260502224234 27 7 0.0 0.0 0.00 0.00 0.00 51 1017.2
20260502223732 26 284 0.0 1.6 0.00 0.00 0.00 53 1017.5
20260502223230 26 285 0.0 1.6 0.00 0.00 0.00 53 1017.6
20260502222727 25 53 0.0 1.6 0.00 0.00 0.00 57 1017.5
20260502222223 26 145 0.0 1.6 0.00 0.00 0.00 55 1017.6
20260502221720 26 338 0.0 3.2 0.00 0.00 0.00 55 1017.6
20260502221216 26 340 0.0 4.8 0.00 0.00 0.00 54 1017.7
20260502220713 26 96 1.6 3.2 0.00 0.00 0.00 55 1017.8
20260502220209 26 53 1.6 9.7 0.00 0.00 0.00 51 1017.6
20260502215706 25 298 0.0 3.2 0.00 0.00 0.00 58 1017.7
20260502215203 26 39 0.0 3.2 0.00 0.00 0.00 55 1018.1
20260502214700 25 333 0.0 4.8 0.00 0.00 0.00 55 1017.7
20260502214158 25 325 0.0 3.2 0.00 0.00 0.00 60 1017.7
20260502213654 25 198 0.0 1.6 0.00 0.00 0.00 60 1017.8
20260502213151 26 29 1.6 3.2 0.00 0.00 0.00 50 1018.1
20260502212650 25 310 0.0 1.6 0.00 0.00 0.00 54 1017.9
20260502212148 25 286 1.6 1.6 0.00 0.00 0.00 53 1018.0
20260502211643 25 292 1.6 4.8 0.00 0.00 0.00 57 1018.1
20260502211141 26 120 0.0 3.2 0.00 0.00 0.00 53 1018.2
20260502210638 24 324 0.0 1.6 0.00 0.00 0.00 59 1018.3
20260502210135 23 30 0.0 1.6 0.00 0.00 0.00 57 1018.2
20260502205632 25 41 0.0 1.6 0.00 0.00 0.00 52 1018.4
20260502205128 24 68 1.6 1.6 0.00 0.00 0.00 54 1018.3
20260502204625 23 51 1.6 1.6 0.00 0.00 0.00 56 1018.7
20260502204123 22 301 0.0 3.2 0.00 0.00 0.00 59 1018.4
20260502203620 23 37 1.6 1.6 0.00 0.00 0.00 58 1018.5
20260502203118 22 62 0.0 1.6 0.00 0.00 0.00 58 1018.5
20260502202613 22 306 0.0 4.8 0.00 0.00 0.00 62 1018.6
20260502202111 23 79 0.0 1.6 0.00 0.00 0.00 62 1018.8
20260502201607 22 290 0.0 3.2 0.00 0.00 0.00 61 1018.6
20260502201104 22 320 1.6 3.2 0.00 0.00 0.00 62 1018.9
20260502200600 22 317 0.0 1.6 0.00 0.00 0.00 62 1018.8